Location: Dzierzno
(50.6159°N, 19.2852°E)
Time: 01:48:52
(UTC+00:00)

Thor Agena Rocket - Pass Details

Date: 18 November 2025
Orbit: 755 x 802 km, 99.1° (Epoch: 04 December)

Event Time Altitude Azimuth Distance (km) Brightness Sun altitude
Rises 15:41:44 0° 163° (SSE) 3,299 6.8 -7.8°
Reaches altitude 10° 15:44:03 10° 164° (SSE) 2,375 6.1 -8.2°
Maximum altitude 15:49:19 86° 253° (WSW) 812 3.7 -9.0°
Drops below altitude 10° 15:54:37 10° 343° (NNW) 2,386 6.0 -9.8°
Sets 15:56:57 0° 344° (NNW) 3,316 6.8 -10.1°
